This is the latest recevied weather packets stored in our database for station/object KJ7IVE-13. If no packets are shown the sender has not sent any weather packets the latest 10 day(s).
| Time | Temp. | Humidity | Pressure | Rain* | Wind** | Luminosity | Snow |
|---|---|---|---|---|---|---|---|
| 1777719356 | 7.22° C | 10% | 1021.6 hPa | 0 mm | - | 0 W/m² | - |
| 1777719054 | 7.22° C | 10% | 1021.7 hPa | 0 mm | - | 0 W/m² | - |
| 1777718751 | 7.22° C | 10% | 1021.9 hPa | 0 mm | - | 0 W/m² | - |
| 1777718448 | 7.22° C | 10% | 1022 hPa | 0 mm | - | 0 W/m² | - |
| 1777718146 | 6.67° C | 10% | 1021.9 hPa | 0 mm | - | 0 W/m² | - |
| 1777717844 | 7.22° C | 10% | 1021.9 hPa | 0 mm | - | 0 W/m² | - |
| 1777717540 | 7.78° C | 10% | 1021.8 hPa | 0 mm | - | 0 W/m² | - |
| 1777717237 | 7.78° C | 10% | 1021.8 hPa | 0 mm | - | 0 W/m² | - |
| 1777716935 | 7.22° C | 10% | 1022 hPa | 0 mm | - | 0 W/m² | - |
| 1777716633 | 7.22° C | 10% | 1021.9 hPa | 0 mm | - | 0 W/m² | - |
| 1777716331 | 7.22° C | 10% | 1021.9 hPa | 0 mm | - | 0 W/m² | - |
| 1777716029 | 7.78° C | 10% | 1021.7 hPa | 0 mm | - | 0 W/m² | - |
| 1777715727 | 7.78° C | 10% | 1021.8 hPa | 0 mm | - | 0 W/m² | - |
| 1777715424 | 7.78° C | 10% | 1021.7 hPa | 0 mm | - | 0 W/m² | - |
| 1777715121 | 7.78° C | 10% | 1021.7 hPa | 0 mm | - | 0 W/m² | - |
| 1777714819 | 7.78° C | 10% | 1021.7 hPa | 0 mm | - | 0 W/m² | - |
| 1777714518 | 8.89° C | 10% | 1021.8 hPa | 0 mm | - | 0 W/m² | - |
| 1777714215 | 8.89° C | 10% | 1021.9 hPa | 0 mm | - | 0 W/m² | - |
| 1777713912 | 8.89° C | 10% | 1021.7 hPa | 0 mm | - | 0 W/m² | - |
| 1777713610 | 8.33° C | 10% | 1021.6 hPa | 0 mm | - | 0 W/m² | - |
| 1777713306 | 8.89° C | 10% | 1021.6 hPa | 0 mm | - | 0 W/m² | - |
| 1777713004 | 9.44° C | 10% | 1021.7 hPa | 0 mm | - | 0 W/m² | - |
| 1777712700 | 9.44° C | 10% | 1021.6 hPa | 0 mm | - | 0 W/m² | - |
| 1777712396 | 9.44° C | 10% | 1021.8 hPa | 0 mm | - | 0 W/m² | - |
| 1777712092 | 9.44° C | 10% | 1021.7 hPa | 0 mm | - | 0 W/m² | - |
* Rain latest hour (hover to see other rain measurements)
** Current wind speed in m/s (hover to see current wind gust speed)